Location: Newark
(48.6461°N, 4.3644°W)
Time: 04:21:40
(UTC+00:00)

Transit 4A - Pass Details

Date: 28 January 2020
Orbit: 872 x 973 km, 66.8° (Epoch: 16 February)

Event Time Altitude Azimuth Distance (km) Brightness Sun altitude
Rises 11:56:12 0° 321° (NW) 3,484 10.4 22.7°
Reaches altitude 10° 11:59:41 10° 341° (NNW) 2,535 9.7 22.7°
Maximum altitude 12:03:23 17° 21° (NNE) 2,076 9.4 22.8°
Drops below altitude 10° 12:07:06 10° 61° (ENE) 2,529 10.0 22.9°
Sets 12:10:33 0° 81° (E) 3,471 10.9 23.0°
